Regional Weather Roundup
Issued by NWS Boston, MA

Current Version | Previous Version | Text Only | Print | Product List | Glossary On
Versions: 1 2 3 4 5 6 7 8 9 10 11 12 13 14 15 16 17 18 19 20 21 22 23 24 25 26 27 28 29 30 31 32 33 34 35 36 37 38 39 40 41 42 43 44 45 46 47 48 49
000
ASUS41 KBOX 281710
RWRBOX

REGIONAL WEATHER ROUNDUP
NATIONAL WEATHER SERVICE TAUNTON MA
1200 PM EST SAT FEB 28 2015

NOTE:  "FAIR" INDICATES FEW OR NO CLOUDS BELOW 12,000 FEET WITH NO
SIGNIFICANT WEATHER AND/OR OBSTRUCTIONS TO VISIBILITY.  THE FOLLOWING
OBSERVATION LOCATIONS DO NOT REPORT PRESENT WEATHER...PROVINCETOWN...
SMITHFIELD...BLOCK ISLAND...KEENE...AND OXFORD.

MAZALL-281800-
EASTERN MASSACHUSETTS

CITY           SKY/WX    TMP DP  RH WIND       PRES   REMARKS
BOSTON         SUNNY     25   1  35 NW5       30.74F WCI  19
BEVERLY        SUNNY     23  -3  32 W9        30.71F WCI  13
LAWRENCE       SUNNY     22   0  38 W8        30.73F WCI  12
BEDFORD        SUNNY     22  -2  35 S5        30.72F WCI  16
BLUE HILL        N/A     22  -1  36 NW6       30.67F WCI  14
NORWOOD        SUNNY     25  -3  29 W5        30.74F WCI  19
MARSHFIELD     SUNNY     27   7  43 NE6       30.75S WCI  20
PLYMOUTH       SUNNY     23  -2  33 W7        30.73F WCI  15
TAUNTON        SUNNY     25  -1  32 VRB5      30.74S WCI  19
NEW BEDFORD    SUNNY     25  -1  32 W3        30.74S
$$

MAZALL-281800-
CAPE COD AND THE ISLANDS

CITY           SKY/WX    TMP DP  RH WIND       PRES   REMARKS
FALMOUTH       SUNNY     25  -2  30 W8        30.74R WCI  16
HYANNIS        SUNNY     25   8  48 CALM      30.73S
CHATHAM        SUNNY     26   8  46 VRB7      30.74S WCI  18
PROVINCETOWN   SUNNY     23   9  54 W9        30.74F WCI  13
NANTUCKET      SUNNY     26  12  55 NW5       30.74S WCI  20
MARTHAS VNYRD  SUNNY     25  -7  24 NW6       30.74F WCI  18
$$

MAZALL-281800-
CENTRAL AND WESTERN MASSACHUSETTS

CITY           SKY/WX    TMP DP  RH WIND       PRES   REMARKS
WORCESTER      SUNNY     21  -3  35 W7        30.65F WCI  12
FITCHBURG      MIX PCPN  26   0  32 NW9       30.71F WCI  17
ORANGE         SUNNY     22   0  38 N7        30.71F WCI  13
SPRINGFIELD    SUNNY     23   1  38 CALM      30.74F
WESTFIELD      SUNNY     23  -2  33 CALM      30.74F
NORTH ADAMS    SUNNY     17  -1  45 SW3       30.73F
PITTSFIELD     SUNNY     16   2  54 W8        30.67F WCI   5
$$

RIZALL-281800-
RHODE ISLAND

CITY           SKY/WX    TMP DP  RH WIND       PRES   REMARKS
PROVIDENCE     MOSUNNY   24   0  35 SE3       30.75S
NEWPORT        SUNNY     24   0  35 CALM      30.74F
BLOCK ISLAND   SUNNY     25   7  46 NW7       30.75F WCI  17
SMITHFIELD     SUNNY     25  -2  30 CALM      30.70S
WESTERLY       SUNNY     24   1  36 SW6       30.76F WCI  17
$$

CTZALL-281800-
CONNECTICUT

CITY           SKY/WX    TMP DP  RH WIND       PRES   REMARKS
BRADLEY INTL   MOSUNNY   23   1  38 CALM      30.75F
HARTFORD       SUNNY     21   1  41 SE3       30.78F
BRIDGEPORT     SUNNY     24   4  42 NW8       30.79F WCI  15
DANBURY        SUNNY     21  -1  38 VRB7      30.77F WCI  12
GROTON         SUNNY     21   6  52 S6        30.76F WCI  13
NEW HAVEN      MOSUNNY   23   2  40 W6        30.78F WCI  16
CHESTER        FAIR      23   1  39 N7        30.74F WCI  15
MERIDEN        SUNNY     24   0  35 NW3       30.77F
WILLIMANTIC    SUNNY     23   0  36 S5        30.75F WCI  17
OXFORD         SUNNY     21   0  39 N6        30.74S WCI  14
$$

MEZ002-015-021-024-NHZ003-005-008-011-012-014-VTZ005-008-281800-
NORTHERN NEW ENGLAND

CITY           SKY/WX    TMP DP  RH WIND       PRES   REMARKS
PORTLAND ME    SUNNY     24   0  35 S10       30.70F WCI  14
BANGOR ME      SUNNY     23  -3  32 W6        30.64F WCI  16
CONCORD NH     SUNNY     22  -2  35 CALM      30.70F
MANCHESTER NH  SUNNY     24   1  36 CALM      30.70F
NASHUA NH      SUNNY     24  -1  33 CALM      30.72F
PORTSMOUTH NH  SUNNY     25   1  35 S2        30.69F
JAFFREY NH     SUNNY     20  -3  36 SW5       30.64F WCI  13
KEENE NH       SUNNY     19   0  42 CALM      30.70F
BURLINGTON VT  SUNNY     18   0  45 S9        30.74F WCI   7
MT. WASHINGTON MOSUNNY    0 -18  42 W37         N/A  WCI -28
$$

NYZ052-076-281800-
EASTERN NEW YORK

CITY           SKY/WX    TMP DP  RH WIND       PRES   REMARKS
ALBANY         SUNNY     20   3  48 W3        30.79F
NEW YORK CITY  MOSUNNY   23   0  36 N5        30.82S WCI  17
$$

ANZALL-281800-
MARINE OBSERVATIONS

STATION/POSITION TIME  TEMP    WIND        PRES    VSBY  WAVE
                       AIR SEA DIR/SP/G                  HT/PER
                 (UTC) (F)     (DEG/KT/KT) (MB)    (MI)  (FT/S)
BOSTON BUOY      1650   20 37  290/  8/ 10 1041.2F         2/ 9
BUZZARDS BAY     1700          280/  6/  7 1042.0F
NANTUCKET SOUND  1650   23 33  310/  6/  8 1041.5R         1
MASS BAY-STELLWA 1604   20 36  260/  6/  8   N/A    1 3/4  3/11
ISLE OF SHOALS   1700   21     220/  5/  6 1039.6F
S OF BLOCK IS    NOT AVBL
$$

......................KEY.........................
  SKY/WX - SKY CONDITION/PRESENT WEATHER
  TMP    - TEMPERATURE IN FAHRENHEIT
  DWPT   - DEWPOINT IN FAHRENHEIT
  RH     - RELATIVE HUMIDITY IN PERCENT
  WIND   - DIRECTION AND SPEED IN MPH
  PRES   - MEAN SEA LEVEL PRESSURE IN INCHES OF HG
  WCI    - WIND CHILL INDEX
  VSB    - VISIBILITY IN MILES
  HX     - HEAT INDEX
  TC     - TEMPERATURE IN CELSIUS
  VRB    - VARIABLE WIND DIRECTION
  N/A    - NOT AVAILABLE



USA.gov is the U.S. government's official web portal to all federal, state and local government web resources and services.